FW5335 Weather Reports


time (UTC)temp
F
wind
direction
speed
knots
gust
knots
rain 1hr
in
rain 24hr
in
rain mn
in
humidity
%
barometer
mb
20260903135518 76 248 7.0 13.9 0.00 0.00 0.00 66 1019.5
20260903134520 76 225 7.0 13.0 0.00 0.00 0.00 65 1019.5
20260903133520 77 248 10.4 19.1 0.00 0.00 0.00 64 1019.5
20260903132539 76 225 6.1 12.2 0.00 0.00 0.00 66 1019.7
20260903131519 76 248 8.7 16.5 0.00 0.00 0.00 66 1019.8
20260903130520 77 248 8.7 14.8 0.00 0.00 0.00 64 1019.6
20260903125518 78 225 9.6 17.4 0.00 0.00 0.00 62 1019.4
20260903124518 78 248 10.4 17.4 0.00 0.00 0.00 62 1019.3
20260903123518 77 248 8.7 15.6 0.00 0.00 0.00 67 1019.5
20260903122519 77 248 8.7 16.5 0.00 0.00 0.00 68 1019.4
20260903121519 77 248 7.0 14.8 0.00 0.00 0.00 68 1019.4
20260903120538 77 225 12.2 20.9 0.00 0.00 0.00 68 1019.6
20260903115519 77 248 9.6 18.2 0.00 0.00 0.00 69 1019.5
20260903114522 77 225 7.8 16.5 0.00 0.00 0.00 70 1019.4
20260903113519 76 248 7.8 13.0 0.00 0.00 0.00 71 1019.4
20260903112521 75 225 6.1 12.2 0.00 0.00 0.00 72 1019.6
20260903111520 75 225 8.7 14.8 0.00 0.00 0.00 73 1019.5
20260903110542 75 248 8.7 14.8 0.00 0.00 0.00 72 1019.4
20260903105523 76 248 7.0 11.3 0.00 0.00 0.00 72 1019.4
20260903104520 76 248 7.8 14.8 0.00 0.00 0.00 70 1019.4
20260903103518 76 225 7.0 11.3 0.00 0.00 0.00 72 1019.5
20260903102542 74 248 5.2 9.6 0.00 0.00 0.00 77 1019.3
20260903101520 73 225 6.1 11.3 0.00 0.00 0.00 79 1019.3
20260903100522 72 225 4.3 10.4 0.00 0.00 0.00 81 1019.3
20260903095520 71 225 5.2 9.6 0.00 0.00 0.00 82 1019.4
20260903094542 71 225 4.3 8.7 0.00 0.00 0.00 84 1019.6
20260903093519 70 225 5.2 10.4 0.00 0.00 0.00 85 1019.6
20260903092518 69 225 1.7 3.5 0.00 0.00 0.00 88 1019.3
20260903091521 68 225 3.5 7.0 0.00 0.00 0.00 87 1019.4
20260903090519 68 248 3.5 7.8 0.00 0.00 0.00 87 1019.7
20260903085539 68 248 4.3 7.8 0.00 0.00 0.00 86 1019.4
20260903084518 68 248 2.6 6.1 0.00 0.00 0.00 85 1019.5
20260903083522 68 248 3.5 7.0 0.00 0.00 0.00 83 1019.5
20260903082520 69 225 4.3 8.7 0.00 0.00 0.00 82 1019.5
20260903081518 69 248 5.2 10.4 0.00 0.00 0.00 81 1019.3
20260903080518 69 225 6.1 11.3 0.00 0.00 0.00 81 1019.3
20260903075519 69 225 5.2 11.3 0.00 0.01 0.00 81 1019.2
20260903074521 69 248 5.2 10.4 0.00 0.01 0.00 81 1019.2
20260903073518 69 225 5.2 10.4 0.00 0.01 0.00 81 1019.0
20260903072519 68 225 5.2 11.3 0.00 0.01 0.00 83 1018.9
20260903071519 68 225 6.1 11.3 0.00 0.01 0.00 84 1018.5
20260903070519 67 225 7.0 13.0 0.00 0.01 0.00 85 1018.9
20260903065519 67 225 7.0 12.2 0.00 0.01 0.00 86 1018.8
20260903064539 66 225 5.2 12.2 0.00 0.01 0.00 86 1018.6
20260903063519 66 225 3.5 8.7 0.00 0.01 0.00 87 1018.5
20260903062619 66 225 7.0 12.2 0.00 0.01 0.00 87 1018.8
20260903061538 66 225 6.1 10.4 0.00 0.01 0.00 88 1018.7
20260903060518 66 225 3.5 7.8 0.00 0.01 0.00 88 1018.7
20260903055517 66 225 2.6 6.1 0.00 0.01 0.00 88 1018.6
20260903054518 66 225 4.3 10.4 0.00 0.01 0.00 87 1018.7
20260903053519 66 225 5.2 9.6 0.00 0.01 0.00 87 1018.6
20260903052517 66 225 5.2 9.6 0.00 0.01 0.00 87 1018.7
20260903051523 65 248 4.3 9.6 0.00 0.01 0.00 86 1018.7
20260903050518 66 225 4.3 8.7 0.00 0.01 0.00 86 1018.4
20260903045534 66 225 5.2 10.4 0.00 0.01 0.00 86 1018.5
20260903044543 66 248 5.2 9.6 0.00 0.01 0.00 86 1018.4
20260903043522 66 225 6.1 13.0 0.00 0.01 0.00 86 1018.2
20260903042520 66 225 6.1 12.2 0.00 0.01 0.00 87 1018.2
20260903041519 66 225 7.0 12.2 0.00 0.01 0.00 87 1018.0
20260903040518 66 248 7.0 13.0 0.00 0.01 0.00 86 1018.0
20260903035521 66 225 6.1 11.3 0.00 0.01 0.00 86 1017.8
20260903034521 66 248 7.8 13.9 0.00 0.01 0.00 86 1018.0
20260903033540 66 248 6.1 10.4 0.00 0.01 0.00 87 1018.2
20260903032517 66 248 5.2 10.4 0.00 0.01 0.00 87 1018.1
20260903031538 66 248 5.2 11.3 0.00 0.01 0.00 87 1018.0
20260903030519 66 225 6.1 11.3 0.00 0.01 0.00 86 1017.9
20260903025518 66 225 6.1 12.2 0.00 0.01 0.00 86 1018.0
20260903024518 66 225 5.2 8.7 0.00 0.01 0.00 86 1018.0
20260903023537 66 225 3.5 8.7 0.00 0.01 0.00 86 1018.1
20260903022520 66 225 4.3 11.3 0.00 0.01 0.00 86 1018.1
20260903021518 66 225 3.5 7.8 0.00 0.01 0.00 85 1018.2
20260903020521 66 225 4.3 11.3 0.00 0.01 0.00 85 1018.2
20260903015519 67 225 4.3 8.7 0.00 0.01 0.00 85 1018.3
20260903014539 67 225 3.5 7.0 0.00 0.01 0.00 85 1018.2
20260903013518 67 225 1.7 4.3 0.00 0.01 0.00 85 1018.3
20260903012520 67 225 4.3 8.7 0.00 0.01 0.00 85 1018.0
20260903011520 67 225 4.3 9.6 0.00 0.01 0.00 85 1018.1
20260903010518 67 225 4.3 9.6 0.00 0.01 0.00 85 1018.0
20260903005517 67 225 4.3 8.7 0.00 0.01 0.00 85 1018.2
20260903004520 67 225 5.2 9.6 0.00 0.01 0.00 84 1018.1
20260903003518 66 225 3.5 7.8 0.00 0.01 0.00 84 1018.4
20260903002518 66 225 5.2 12.2 0.00 0.01 0.00 84 1018.5
20260903001538 66 225 4.3 10.4 0.00 0.01 0.00 84 1018.4
20260903000521 66 225 4.3 9.6 0.00 0.01 0.00 84 1018.3
20260902235540 66 225 4.3 12.2 0.00 0.01 0.00 84 1018.4
20260902234518 66 225 4.3 7.8 0.00 0.01 0.00 84 1018.6
20260902233520 66 248 4.3 10.4 0.00 0.01 0.00 83 1018.6
20260902232521 66 225 6.1 11.3 0.00 0.01 0.00 83 1018.6
20260902231522 66 248 5.2 10.4 0.00 0.01 0.00 83 1018.8
20260902230521 66 225 3.5 7.0 0.00 0.01 0.00 83 1018.7
20260902225522 66 225 4.3 9.6 0.00 0.01 0.01 83 1018.6
20260902224520 66 225 4.3 8.7 0.00 0.01 0.01 83 1018.7
20260902223520 66 225 5.2 12.2 0.00 0.01 0.01 82 1018.7
20260902222539 66 225 4.3 9.6 0.00 0.01 0.01 82 1019.0
20260902221518 66 225 5.2 9.6 0.00 0.01 0.01 82 1018.8
20260902220521 66 225 6.1 12.2 0.00 0.01 0.01 82 1018.8
20260902215519 67 225 5.2 10.4 0.00 0.01 0.01 81 1018.7
20260902214521 67 225 6.1 9.6 0.00 0.01 0.01 81 1018.8
20260902213531 67 225 6.1 10.4 0.00 0.01 0.01 81 1018.7
20260902212517 66 225 5.2 9.6 0.00 0.01 0.01 81 1018.8
20260902211517 67 225 6.1 11.3 0.00 0.01 0.01 81 1018.6
20260902210520 66 248 6.1 14.8 0.00 0.01 0.01 81 1018.5
20260902205518 66 225 6.1 13.9 0.00 0.01 0.01 80 1018.4
20260902204520 67 225 6.1 14.8 0.00 0.01 0.01 80 1018.4
20260902203518 67 225 7.0 12.2 0.00 0.01 0.01 79 1018.3
20260902202517 67 225 7.8 13.0 0.00 0.01 0.01 80 1018.4
20260902201522 67 248 5.2 9.6 0.00 0.01 0.01 80 1018.3
20260902200520 67 225 6.1 11.3 0.00 0.01 0.01 80 1018.3
20260902195538 67 225 6.1 11.3 0.00 0.01 0.01 80 1018.1
20260902194518 67 225 6.1 11.3 0.00 0.01 0.01 79 1017.8
20260902193539 67 248 7.0 13.0 0.00 0.01 0.01 79 1017.7
20260902192521 68 225 6.1 10.4 0.00 0.01 0.01 79 1017.9
20260902191519 68 225 6.1 11.3 0.00 0.01 0.01 79 1017.9
20260902190521 68 225 6.1 10.4 0.00 0.01 0.01 78 1017.9
20260902185519 69 248 5.2 9.6 0.00 0.01 0.01 78 1017.9
20260902184520 69 248 4.3 8.7 0.00 0.01 0.01 77 1017.9
20260902183520 69 225 5.2 11.3 0.00 0.01 0.01 77 1017.9
20260902182522 69 225 7.0 13.0 0.00 0.01 0.01 77 1017.8
20260902181527 69 225 5.2 12.2 0.00 0.01 0.01 77 1017.6
20260902180522 70 248 7.0 12.2 0.00 0.01 0.01 76 1017.5
20260902175518 70 225 7.0 12.2 0.00 0.01 0.01 76 1017.7
20260902174521 70 225 7.8 13.9 0.00 0.01 0.01 76 1017.9
20260902173519 70 225 7.0 12.2 0.00 0.01 0.01 76 1017.7
20260902172519 70 225 7.8 13.0 0.00 0.01 0.01 76 1017.7
20260902171540 71 225 8.7 15.6 0.00 0.01 0.01 76 1017.4
20260902170518 71 248 9.6 16.5 0.00 0.01 0.01 76 1017.6
20260902165518 71 248 6.1 12.2 0.00 0.01 0.01 77 1017.6
20260902164520 71 248 8.7 14.8 0.00 0.01 0.01 77 1017.6
20260902163519 71 248 9.6 17.4 0.00 0.01 0.01 77 1017.5
20260902162519 71 248 8.7 14.8 0.00 0.01 0.01 79 1017.5
20260902161539 71 248 4.3 9.6 0.00 0.01 0.01 81 1017.5
20260902160519 71 225 6.1 10.4 0.00 0.01 0.01 81 1017.5
20260902155517 71 225 7.0 13.9 0.00 0.01 0.01 82 1017.3
20260902154518 71 225 5.2 10.4 0.00 0.01 0.01 85 1017.3
20260902153540 70 225 5.2 9.6 0.00 0.01 0.01 83 1017.4
20260902152519 71 225 7.8 13.9 0.00 0.01 0.01 80 1017.5
20260902151519 72 225 5.2 12.2 0.00 0.01 0.01 78 1017.6
20260902150519 72 225 7.0 13.0 0.00 0.01 0.01 77 1017.5
20260902145520 72 203 7.0 11.3 0.00 0.01 0.01 76 1017.4
20260902144519 72 203 9.6 15.6 0.00 0.01 0.01 75 1017.6
20260902143520 73 203 7.8 13.9 0.00 0.01 0.01 75 1017.7
20260902142538 74 203 9.6 20.0 0.00 0.01 0.01 72 1017.6
20260902141521 75 225 9.6 19.1 0.00 0.01 0.01 71 1017.8
20260902140520 75 203 11.3 20.0 0.00 0.01 0.01 71 1017.8